User: anonymous   Login
Location: Unspecified
(0.0000°N, 0.0000°E)
Time: 23:55:50
(UTC+00:00)
Language:

APRIZESAT 2 (LATINSAT D) - Orbit

View from above orbital plane
View from above orbital plane
View from above satellite
View from above satellite

Ground track
Ground track

The orbit data is extracted from the following two-line orbital elements,

1 28366U 04025A   21332.37230070  .00000011  00000-0  17233-4 0  9991
2 28366  98.1918 206.4062 0106769 219.1800 140.1623 14.36762486912942
Epoch (UTC): 28 November 2021 08:56:06
Eccentricity: 0.0106769
inclination: 98.1918°
perigee height: 693 km
apogee height: 845 km
right ascension of ascending node: 206.4062°
argument of perigee: 219.1800°
revolutions per day: 14.36762486
mean anomaly at epoch: 140.1623°
orbit number at epoch: 91294

The dashed part of the orbit path shows where the satellite is in the earth's shadow,  

DLR